Waarnemingen

Advertentie
Mijn weer
Sala, Zweden (2481): temperatuur & dauwpunt: 18.07.2019 01:00:00 - 24.07.2019 01:00:00 (CEST)Sala, Zweden (2481): windsnelheid & windstoten: 18.07.2019 01:00:00 - 24.07.2019 01:00:00 (CEST)Sala, Zweden (2481): windrichting: 18.07.2019 01:00:00 - 24.07.2019 01:00:00 (CEST)Sala, Zweden (2481): luchtdruk: 18.07.2019 01:00:00 - 24.07.2019 01:00:00 (CEST)Sala, Zweden (2481): zicht: 18.07.2019 01:00:00 - 24.07.2019 01:00:00 (CEST)Sala, Zweden (2481): neerslag: 18.07.2019 01:00:00 - 24.07.2019 01:00:00 (CEST)
Datum & Tijd tt [°C] td [°C] ff [km/u] ff [kn] fx [km/u] fx [kn] dd ppp [hPa] vv [km] rr [mm]
24.07.2019 01:00:00 - - - - - - - - - -
24.07.2019 00:00:00 12,9 12,7 0 0 1 1 N 1018,2 0,3 0,0
23.07.2019 23:00:00 14,7 14,5 0 0 2 1 N 1017,9 3,5 0,0
23.07.2019 22:00:00 15,9 15,6 0 0 2 1 N 1017,4 50 0,0
23.07.2019 21:00:00 18,0 15,6 0 0 6 4 N 1017,0 50 0,0
23.07.2019 20:00:00 20,0 15,2 6 3 10 5 W 1016,9 50 0,0
23.07.2019 19:00:00 20,5 15,5 6 4 14 8 WZW 1016,7 50 0,0
23.07.2019 18:00:00 20,6 15,4 8 5 16 9 WZW 1016,4 50 0,0
23.07.2019 17:00:00 21,0 14,6 7 4 14 8 W 1016,4 50 0,0
23.07.2019 16:00:00 21,3 14,7 5 3 15 8 ZW 1016,3 50 0,0
23.07.2019 15:00:00 21,5 14,9 7 4 16 9 ZW 1016,2 50 0,0
23.07.2019 14:00:00 21,3 14,5 8 5 18 10 WZW 1016,3 48 0,0
23.07.2019 13:00:00 21,8 15,2 7 4 18 10 ZZW 1015,8 49 0,0
23.07.2019 12:00:00 20,8 14,2 4 2 17 9 WZW 1015,9 50 0,0
23.07.2019 11:00:00 21,2 14,4 8 4 15 8 ZW 1015,8 49 0,0
23.07.2019 10:00:00 19,5 14,3 5 3 15 8 ZW 1015,7 42 0,0
23.07.2019 09:00:00 18,1 14,2 7 4 14 8 WZW 1015,8 44 0,0
23.07.2019 08:00:00 16,8 14,1 6 3 12 6 ZW 1015,4 46 0,0
23.07.2019 07:00:00 15,6 14,1 4 2 9 5 ZW 1015,0 50 0,0
23.07.2019 06:00:00 14,9 13,6 5 3 11 6 ZW 1015,1 50 0,0
23.07.2019 05:00:00 14,6 13,3 4 2 10 5 ZW 1015,2 50 0,0
23.07.2019 04:00:00 14,5 13,2 4 2 9 5 ZW 1015,0 50 0,0
23.07.2019 03:00:00 13,8 12,9 2 1 7 4 Z 1015,0 50 0,0
23.07.2019 02:00:00 14,9 12,8 3 2 9 5 ZZW 1014,9 50 0,0
23.07.2019 01:00:00 15,6 12,7 5 3 14 7 ZW 1014,8 50 0,0
23.07.2019 00:00:00 16,2 12,9 7 4 15 8 ZW 1014,6 50 0,0
22.07.2019 23:00:00 17,0 12,9 7 4 16 8 ZW 1014,5 50 0,0
22.07.2019 22:00:00 17,4 12,5 5 3 12 6 ZW 1013,9 50 0,0
22.07.2019 21:00:00 19,0 12,3 5 3 15 8 ZW 1013,3 50 0,0
22.07.2019 20:00:00 20,2 14,3 6 3 14 8 ZW 1013,0 50 0,0
22.07.2019 19:00:00 19,1 17,2 3 2 13 7 ZZW 1012,9 50 0,9
22.07.2019 18:00:00 20,6 15,4 7 4 17 9 ZW 1012,9 39 0,0
22.07.2019 17:00:00 20,7 15,3 6 4 27 14 ZW 1012,9 50 0,0
22.07.2019 16:00:00 20,2 17,8 4 2 22 12 OZO 1013,0 30 3,6
22.07.2019 15:00:00 22,0 13,9 11 6 22 12 WZW 1013,1 45 0,0
22.07.2019 14:00:00 21,9 13,3 10 5 17 9 W 1013,3 43 0,0
22.07.2019 13:00:00 19,5 15,6 5 3 16 9 NW 1013,7 47 0,0
22.07.2019 12:00:00 19,0 15,3 11 6 19 10 WZW 1013,7 50 0,0
22.07.2019 11:00:00 17,3 16,7 6 3 9 5 WZW 1013,6 47 0,0
22.07.2019 10:00:00 15,7 15,5 3 1 4 2 WZW 1013,3 7 0,0
22.07.2019 09:00:00 15,5 15,3 0 0 3 2 N 1013,2 8 0,0
22.07.2019 08:00:00 15,1 14,9 0 0 3 2 N 1013,2 7 0,0
22.07.2019 07:00:00 15,0 14,8 0 0 6 3 N 1013,1 6 0,0
22.07.2019 06:00:00 14,9 14,7 0 0 3 2 N 1013,1 7 0,0
22.07.2019 05:00:00 14,7 14,5 3 2 5 3 ONO 1013,0 6 0,0
22.07.2019 04:00:00 14,6 14,4 3 2 5 3 ONO 1013,0 6 0,0
22.07.2019 03:00:00 14,6 14,4 0 0 3 2 N 1013,2 5 0,0
22.07.2019 02:00:00 14,5 14,3 0 0 4 2 N 1013,2 6 0,0
22.07.2019 01:00:00 14,2 14,0 0 0 3 2 N 1013,3 4,1 0,0
22.07.2019 00:00:00 14,3 14,1 0 0 4 2 N 1013,3 8 0,0
21.07.2019 23:00:00 14,2 14,0 0 0 2 1 N 1013,4 6 0,0
21.07.2019 22:00:00 14,3 14,1 0 0 4 2 N 1013,3 5 0,0
21.07.2019 21:00:00 14,6 14,4 0 0 2 1 N 1013,3 12 0,0
21.07.2019 20:00:00 14,8 14,6 0 0 3 1 N 1013,2 20 0,0
21.07.2019 19:00:00 14,8 14,6 0 0 9 5 N 1013,3 28 0,3
21.07.2019 18:00:00 14,9 14,7 0 0 6 3 N 1013,3 15 1,6
21.07.2019 17:00:00 16,3 15,3 0 0 10 6 N 1013,7 7 0,9
21.07.2019 16:00:00 16,7 15,2 3 1 15 8 ZW 1013,7 15 0,8
21.07.2019 15:00:00 19,5 14,1 4 2 18 10 ZZW 1013,4 38 -
21.07.2019 14:00:00 22,7 13,2 6 4 13 7 ZW 1012,9 44 0,0
21.07.2019 13:00:00 22,0 13,1 0 0 18 10 N 1012,9 50 0,0
21.07.2019 12:00:00 23,6 11,9 4 2 21 12 Z 1012,8 48 0,0
21.07.2019 11:00:00 23,6 12,6 3 2 21 12 ZZO 1012,9 44 0,0
21.07.2019 10:00:00 22,0 13,1 3 2 13 7 ZZW 1013,1 42 0,0
21.07.2019 09:00:00 20,7 13,6 0 0 22 12 N 1013,3 43 0,0
21.07.2019 08:00:00 17,8 14,1 0 0 16 9 N 1013,8 50 0,0
21.07.2019 07:00:00 16,6 13,9 0 0 12 6 N 1014,3 50 0,0
21.07.2019 06:00:00 13,7 13,5 0 0 9 5 N 1014,2 44 0,0
21.07.2019 05:00:00 10,8 10,6 0 0 2 1 N 1014,2 42 0,0
21.07.2019 04:00:00 11,1 10,8 0 0 4 2 N 1014,6 50 0,0
21.07.2019 03:00:00 11,5 10,4 0 0 4 2 N 1014,4 50 0,0
21.07.2019 02:00:00 12,0 10,4 0 0 3 1 N 1014,8 50 0,0
21.07.2019 01:00:00 12,8 10,2 0 0 1 1 N 1015,0 50 0,0
21.07.2019 00:00:00 13,8 10,8 0 0 4 2 N 1015,0 50 0,0
20.07.2019 23:00:00 14,8 11,9 0 0 3 1 N 1014,8 50 0,0
20.07.2019 22:00:00 16,5 12,8 0 0 2 1 N 1014,6 50 0,0
20.07.2019 21:00:00 19,5 13,0 0 0 6 3 N 1014,0 50 0,0
20.07.2019 20:00:00 20,7 11,9 0 0 11 6 N 1014,0 47 0,0
20.07.2019 19:00:00 24,4 10,7 0 0 17 9 N 1013,8 50 0,0
20.07.2019 18:00:00 25,4 11,6 3 1 14 8 ZZO 1013,8 50 0,0
20.07.2019 17:00:00 26,9 13,6 4 2 16 9 Z 1014,0 40 0,0
20.07.2019 16:00:00 25,6 12,1 4 2 26 14 Z 1014,1 46 0,0
20.07.2019 15:00:00 26,8 11,7 7 4 19 11 ZZW 1014,2 47 0,0
20.07.2019 14:00:00 25,8 12,6 6 3 21 11 Z 1014,6 46 0,0
20.07.2019 13:00:00 24,9 13,1 7 4 19 10 Z 1014,6 36 0,0
20.07.2019 12:00:00 25,2 13,7 4 2 14 8 ZZW 1014,6 45 0,0
20.07.2019 11:00:00 24,4 13,0 2 1 16 8 ZW 1014,6 40 0,0
20.07.2019 10:00:00 22,6 11,0 4 2 13 7 Z 1014,6 50 0,0
20.07.2019 09:00:00 20,1 13,1 3 1 9 5 Z 1014,6 47 0,0
20.07.2019 08:00:00 18,0 13,1 0 0 6 4 N 1014,5 50 0,0
20.07.2019 07:00:00 14,7 13,2 0 0 4 2 N 1014,2 38 0,0
20.07.2019 06:00:00 11,2 11,0 0 0 4 2 N 1014,4 26 0,0
20.07.2019 05:00:00 9,4 9,3 0 0 1 1 N 1014,4 0,9 0,0
20.07.2019 04:00:00 10,5 10,3 0 0 1 1 N 1014,1 0,8 0,0
20.07.2019 03:00:00 11,0 10,8 0 0 1 1 N 1014,2 7 0,0
20.07.2019 02:00:00 12,2 11,6 0 0 3 2 N 1014,1 50 0,0
20.07.2019 01:00:00 13,8 12,5 0 0 4 2 N 1014,0 50 0,0
20.07.2019 00:00:00 14,3 12,9 4 2 11 6 N 1013,9 49 0,0
19.07.2019 23:00:00 16,3 13,2 0 0 5 3 N 1013,4 50 0,0
19.07.2019 22:00:00 16,8 13,9 0 0 2 1 N 1013,0 50 0,0
19.07.2019 21:00:00 17,7 13,8 0 0 4 2 N 1012,6 50 0,0
19.07.2019 20:00:00 19,7 14,3 0 0 6 3 N 1012,4 50 0,0
19.07.2019 19:00:00 21,4 13,8 0 0 13 7 N 1012,1 50 0,0
19.07.2019 18:00:00 22,9 13,9 6 3 16 9 O 1012,0 44 0,0
19.07.2019 17:00:00 24,4 12,0 2 1 15 8 O 1012,0 48 0,0
19.07.2019 16:00:00 26,4 12,1 6 3 18 10 ZZW 1012,0 47 0,0
19.07.2019 15:00:00 24,9 11,1 8 4 18 10 ZW 1012,1 45 0,0
19.07.2019 14:00:00 25,5 10,5 6 3 18 10 ZZW 1012,3 41 0,0
19.07.2019 13:00:00 25,0 11,2 5 3 22 12 ZZW 1012,4 44 0,0
19.07.2019 12:00:00 23,3 12,0 8 5 18 10 ZW 1012,7 47 0,0
19.07.2019 11:00:00 23,8 12,1 5 3 13 7 Z 1012,8 41 0,0
19.07.2019 10:00:00 22,4 13,2 5 3 10 5 ZZW 1012,9 44 0,0
19.07.2019 09:00:00 20,2 13,4 3 2 8 5 ZW 1013,0 43 0,0
19.07.2019 08:00:00 18,4 13,3 0 0 4 2 N 1013,0 50 0,0
19.07.2019 07:00:00 15,7 14,6 0 0 3 1 N 1012,9 50 0,0
19.07.2019 06:00:00 11,7 11,5 0 0 1 0 N 1012,9 18 0,0
19.07.2019 05:00:00 10,2 10,0 0 0 1 1 N 1013,0 25 0,0
19.07.2019 04:00:00 10,5 10,3 0 0 1 1 N 1012,7 34 0,0
19.07.2019 03:00:00 11,0 10,8 0 0 1 1 N 1012,7 6 0,0
19.07.2019 02:00:00 11,3 11,1 0 0 1 1 N 1012,7 38 0,0
19.07.2019 01:00:00 12,1 11,0 0 0 2 1 N 1012,7 50 0,0
19.07.2019 00:00:00 13,9 11,9 0 0 2 1 N 1012,4 50 0,0
18.07.2019 23:00:00 15,6 11,0 0 0 5 3 N 1012,2 50 0,0
18.07.2019 22:00:00 17,6 11,8 0 0 2 1 N 1012,1 50 0,0
18.07.2019 21:00:00 19,9 13,1 0 0 8 4 N 1011,7 50 0,0
18.07.2019 20:00:00 23,1 12,1 4 2 9 5 Z 1011,4 50 0,0
18.07.2019 19:00:00 23,9 10,9 6 3 16 9 ZZW 1011,3 50 0,0
18.07.2019 18:00:00 24,0 11,3 8 4 15 8 ZZW 1011,3 46 0,0
18.07.2019 17:00:00 25,0 11,9 4 2 14 8 Z 1011,3 50 0,0
18.07.2019 16:00:00 25,2 11,0 6 3 15 8 Z 1011,5 43 0,0
18.07.2019 15:00:00 24,8 11,0 5 3 13 7 ZW 1011,7 40 0,0
18.07.2019 14:00:00 24,3 10,9 4 2 13 7 Z 1011,8 42 0,0
18.07.2019 13:00:00 23,7 12,4 5 3 14 7 ZW 1012,0 33 0,0
18.07.2019 12:00:00 22,5 12,4 4 2 13 7 ZZW 1012,3 38 0,0
18.07.2019 11:00:00 20,8 13,3 6 4 14 8 ZW 1012,3 42 0,0
18.07.2019 10:00:00 19,0 13,6 3 2 10 6 ZZW 1012,4 50 0,0
18.07.2019 09:00:00 17,3 13,0 2 1 9 5 ZZW 1012,4 50 0,0
18.07.2019 08:00:00 15,5 13,3 0 0 6 3 N 1012,1 50 0,0
18.07.2019 07:00:00 13,2 13,0 0 0 3 2 N 1012,3 39 0,0
18.07.2019 06:00:00 11,9 11,7 0 0 2 1 N 1012,5 27 0,0
18.07.2019 05:00:00 11,1 10,9 0 0 2 1 N 1012,5 19 0,0
18.07.2019 04:00:00 10,9 10,7 0 0 1 1 N 1012,4 36 0,0
18.07.2019 03:00:00 11,0 10,8 0 0 4 2 N 1012,3 43 0,0
18.07.2019 02:00:00 11,2 11,0 0 0 5 3 N 1012,4 41 0,0
18.07.2019 01:00:00 10,4 10,2 0 0 4 2 N 1012,4 - 0,0

tt = temperatuur
td = dauwpunt
ff = windsnelheid
fx = windstoten
dd = windrichting
ppp = luchtdruk
vv = zicht
rr = neerslag

Weerstations in de omgeving